EW7736 Weather Reports


Display with metric or nautical units.
time (UTC)temp
F
wind
direction
speed
MPH
gust
MPH
rain 1hr
in
rain 24hr
in
rain mn
in
humidity
%
barometer
mb
20260906072448 60 186 0.0 0.0 0.00 0.00 0.00 55 1014.0
20260906071414 61 186 0.0 0.0 0.00 0.00 0.00 59 1013.9
20260906070407 61 186 0.0 0.0 0.00 0.00 0.00 58 1014.0
20260906065355 61 186 0.0 0.0 0.00 0.00 0.00 59 1013.9
20260906064411 61 186 0.0 0.0 0.00 0.00 0.00 62 1013.9
20260906063415 62 186 0.0 0.0 0.00 0.00 0.00 63 1013.9
20260906062415 62 186 0.0 0.0 0.00 0.00 0.00 65 1013.9
20260906061402 62 186 0.0 0.0 0.00 0.00 0.00 68 1013.8
20260906060412 63 186 0.0 0.0 0.00 0.00 0.00 69 1013.8
20260906055403 63 186 0.0 0.0 0.00 0.00 0.00 69 1013.8
20260906054418 63 186 0.0 0.0 0.00 0.00 0.00 70 1013.8
20260906053356 63 186 0.0 0.0 0.00 0.00 0.00 70 1013.8
20260906052406 64 186 0.0 0.0 0.00 0.00 0.00 70 1014.0
20260906051348 64 186 0.0 0.0 0.00 0.00 0.00 69 1013.9
20260906050400 64 186 0.0 0.0 0.00 0.00 0.00 69 1013.8
20260906044225 65 186 0.0 0.0 0.00 0.00 0.00 67 1014.0
20260906043240 66 186 0.0 0.0 0.00 0.00 0.00 70 1014.0
20260906042256 65 186 0.0 0.0 0.00 0.00 0.00 73 1014.0
20260906041239 66 186 0.0 0.0 0.00 0.00 0.00 73 1014.0
20260906032850 67 129 0.0 0.0 0.00 0.00 0.00 59 1014.1
20260906031829 67 129 0.0 0.0 0.00 0.00 0.00 60 1014.2
20260906030816 67 129 0.0 0.0 0.00 0.00 0.00 61 1014.2
20260906025752 67 129 0.0 0.0 0.00 0.00 0.00 62 1014.0
20260906024724 67 129 0.0 0.0 0.00 0.00 0.00 62 1014.0
20260906023724 68 129 0.0 0.0 0.00 0.00 0.00 61 1014.0
20260906022738 68 129 0.0 0.0 0.00 0.00 0.00 58 1013.9
20260906021726 68 129 0.0 0.0 0.00 0.00 0.00 60 1013.8
20260906014452 70 129 0.0 0.0 0.00 0.00 0.00 64 1013.6
20260906013442 70 129 0.0 0.0 0.00 0.00 0.00 67 1013.6
20260906012441 70 129 0.0 0.0 0.00 0.00 0.00 69 1013.4
20260906011504 70 129 0.0 0.0 0.00 0.00 0.00 70 1013.4
20260906010511 71 129 0.0 0.0 0.00 0.00 0.00 71 1013.3
20260906005516 71 129 0.0 0.0 0.00 0.00 0.00 71 1013.3
20260906004528 71 129 0.0 0.0 0.00 0.00 0.00 70 1013.2
20260906003511 71 129 0.0 0.0 0.00 0.00 0.00 69 1013.1
20260906001321 72 129 0.0 0.0 0.00 0.00 0.00 73 1012.8
20260906000328 72 129 0.0 0.0 0.00 0.00 0.00 75 1012.9
20260905234159 73 129 0.0 0.0 0.00 0.00 0.00 76 1012.8
20260905233135 74 129 0.0 0.0 0.00 0.00 0.00 76 1012.9
20260905231020 75 129 0.0 0.0 0.00 0.00 0.00 76 1012.8
20260905225946 75 129 0.0 0.0 0.00 0.00 0.00 75 1012.8
20260905221558 78 129 0.0 2.0 0.00 0.00 0.00 71 1012.5
20260905220553 78 146 0.0 0.0 0.00 0.00 0.00 73 1012.3
20260905215534 77 122 0.0 2.0 0.00 0.00 0.00 73 1012.3
20260905214504 77 168 0.0 0.0 0.00 0.00 0.00 74 1012.1
20260905213440 77 119 0.0 1.0 0.00 0.00 0.00 73 1012.2
20260905211415 77 130 0.0 0.0 0.00 0.00 0.00 74 1012.0
20260905210343 78 124 0.0 2.0 0.00 0.00 0.00 74 1012.0
20260905205327 78 135 0.0 4.0 0.00 0.00 0.00 74 1012.0
20260905204347 78 126 0.0 3.0 0.00 0.00 0.00 72 1012.1
20260905202226 77 163 0.0 1.0 0.00 0.00 0.00 75 1012.2
20260905201222 77 122 0.0 2.0 0.00 0.00 0.00 75 1012.3
20260905200236 77 170 0.0 0.0 0.00 0.00 0.00 75 1012.4
20260905195255 78 122 0.0 3.0 0.00 0.00 0.00 74 1012.5
20260905194253 79 110 0.0 2.0 0.00 0.00 0.00 73 1012.5
20260905192055 78 153 0.0 1.0 0.00 0.00 0.00 73 1012.8
20260905191023 77 158 0.0 1.0 0.00 0.00 0.00 75 1012.8
20260905190023 77 181 0.0 1.0 0.00 0.00 0.00 75 1013.0
20260905181646 77 129 0.0 0.0 0.00 0.00 0.00 75 1013.3
20260905180648 77 129 0.0 0.0 0.00 0.00 0.00 75 1013.2
20260905175625 77 129 0.0 0.0 0.00 0.00 0.00 75 1013.3
20260905171153 76 119 0.0 2.0 0.00 0.00 0.00 75 1013.7
20260905170138 77 119 0.0 3.0 0.00 0.00 0.00 74 1013.8
20260905165159 78 175 0.0 3.0 0.00 0.00 0.00 73 1013.9
20260905164157 77 122 0.0 0.0 0.00 0.00 0.00 74 1013.7
20260905163156 77 136 0.0 1.0 0.00 0.00 0.00 74 1013.8
20260905162212 77 189 0.0 1.0 0.00 0.00 0.00 75 1013.8
20260905161206 77 151 0.0 0.0 0.00 0.00 0.00 75 1013.9
20260905160200 76 205 0.0 3.0 0.00 0.02 0.00 75 1014.1
20260905155137 75 124 0.0 4.0 0.00 0.02 0.00 75 1014.1
20260905154156 75 120 0.0 0.0 0.00 0.02 0.00 75 1014.1
20260905153150 75 129 0.0 0.0 0.00 0.02 0.00 75 1014.1
20260905150946 74 139 0.0 0.0 0.00 0.02 0.00 62 1014.3
20260905145923 73 139 0.0 0.0 0.00 0.02 0.00 60 1014.3
20260905143800 72 139 0.0 0.0 0.00 0.02 0.00 39 1014.2
20260905142754 72 139 0.0 0.0 0.00 0.02 0.00 3 1013.9
20260905141758 71 139 0.0 0.0 0.00 0.02 0.00 1 1013.9
20260905140742 71 139 0.0 0.0 0.00 0.02 0.00 1 1013.8
20260905135714 71 139 0.0 0.0 0.00 0.02 0.00 1 1013.9
20260905134719 71 139 0.0 0.0 0.00 0.02 0.00 1 1013.8
20260905133741 70 139 0.0 0.0 0.00 0.02 0.00 1 1014.0
20260905132739 70 139 0.0 0.0 0.00 0.02 0.00 1 1014.0
20260905131724 71 139 0.0 0.0 0.00 0.02 0.00 1 1014.1
20260905130658 71 139 0.0 0.0 0.00 0.02 0.00 1 1014.1
20260905125713 70 139 0.0 0.0 0.00 0.02 0.00 1 1014.2
20260905124704 70 139 0.0 0.0 0.00 0.02 0.00 1 1014.2
20260905123652 70 139 0.0 0.0 0.00 0.02 0.00 1 1014.1
20260905121515 70 139 0.0 0.0 0.00 0.02 0.00 1 1014.0
20260905120535 70 139 0.0 0.0 0.00 0.02 0.00 1 1014.0
20260905115525 71 139 0.0 0.0 0.00 0.02 0.00 1 1013.8
20260905114517 71 205 0.0 0.0 0.00 0.02 0.00 1 1013.6
20260905113459 71 116 0.0 0.0 0.00 0.02 0.00 1 1013.4
20260905112518 71 116 0.0 0.0 0.00 0.02 0.00 1 1013.0
20260905111534 71 116 0.0 0.0 0.00 0.02 0.00 1 1013.2
20260905110506 71 51 0.0 0.0 0.00 0.02 0.00 1 1013.2
20260905104328 71 51 0.0 0.0 0.00 0.02 0.00 1 1013.4
20260905103313 71 51 0.0 0.0 0.00 0.02 0.00 1 1013.3
20260905102305 71 51 0.0 0.0 0.00 0.02 0.00 1 1013.1
20260905101238 71 51 0.0 0.0 0.00 0.02 0.00 1 1012.9
20260905100235 71 51 0.0 0.0 0.00 0.02 0.00 1 1012.8
20260905095242 71 51 0.0 0.0 0.00 0.02 0.00 1 1012.9
20260905094255 71 51 0.0 0.0 0.00 0.02 0.00 1 1012.8
20260905093222 71 51 0.0 0.0 0.00 0.02 0.00 1 1013.0
20260905092213 71 51 0.0 0.0 0.00 0.02 0.00 1 1012.6
20260905091223 71 51 0.0 0.0 0.00 0.02 0.00 1 1012.6
20260905090213 71 51 0.0 0.0 0.00 0.02 0.00 1 1012.8
20260905084108 72 51 0.0 0.0 0.00 0.02 0.00 1 1012.6
20260905083133 72 51 0.0 0.0 0.00 0.02 0.00 1 1013.0
20260905082116 72 51 0.0 0.0 0.00 0.02 0.00 1 1012.9
20260905075959 72 51 0.0 0.0 0.00 0.02 0.00 1 1012.8
20260905074942 72 51 0.0 0.0 0.00 0.02 0.00 1 1012.8
20260905073913 72 51 0.0 0.0 0.00 0.07 0.00 1 1013.1